Dewpoint
9 8 5 8 14 15 15 16 16 17 19 20 21 22 22 23 24 24 23 24 24 24 25 25 25 26 27 28 30 31 33 34 32 32 31 31 36 42 43 56 56 55 54
11 8 8 8 12 12 14 14 16 17 18 19 21 22 22 23 24 24 24 24 24 24 24 24 24 24 25 26 27 28 29 32 34 33 34 35 34 37 42 43 56 55 54
13 12 10 9 5 8 10 13 15 17 18 19 20 21 22 23 24 24 24 24 25 25 25 25 24 24 24 26 26 27 28 29 30 33 34 37 36 36 40 41 51 55 54
11 8 6 3 1 1 3 9 13 15 16 17 19 21 23 23 24 25 26 26 26 26 28 28 26 25 25 25 26 26 26 28 30 30 31 33 34 33 37 40 44 54 53
10 8 7 5 1 1 4 7 9 12 14 16 19 20 22 24 24 25 26 28 28 28 29 29 30 31 30 28 25 26 26 26 28 29 31 31 33 34 35 37 41 52 53
7 9 5 1 -3 -2 1 1 5 10 10 12 16 18 20 22 26 28 27 27 28 30 29 28 28 31 32 36 34 33 29 27 26 28 28 30 31 32 33 37 40 51 51
6 5 9 5 5 0 -3 -4 2 5 5 9 13 16 19 21 25 27 29 26 29 28 27 26 26 25 29 28 33 37 35 34 33 28 29 29 29 31 32 35 40 48 51
7 7 5 6 6 4 -1 -0 -1 0 4 9 13 14 17 19 24 26 28 27 28 27 29 29 28 28 29 30 30 29 30 30 31 32 31 33 33 35 35 36 39 46 53
9 7 8 5 2 4 5 4 3 1 5 6 11 13 14 16 23 25 26 28 27 27 25 26 26 27 29 31 31 32 31 29 31 35 35 34 37 38 38 37 40 41 50
10 11 10 7 5 3 4 5 4 -1 3 10 12 13 18 17 22 25 25 27 26 24 25 25 26 25 32 33 33 33 31 31 29 28 32 34 34 34 39 40 40 40 49
8 10 11 11 8 6 3 -3 -0 3 8 9 10 13 14 16 19 24 25 24 26 25 23 22 21 26 28 30 32 36 33 32 30 29 28 29 32 33 37 40 42 43 41
6 6 6 7 10 14 2 2 1 3 6 9 10 15 16 16 21 22 25 26 28 25 21 22 23 29 34 36 36 38 36 34 31 31 30 29 31 34 37 38 39 41 44
4 3 3 3 5 8 7 8 7 8 6 10 11 16 15 16 18 22 24 25 25 24 23 23 26 28 30 36 38 36 36 34 35 34 33 32 34 36 38 40 41 41 43
2 2 0 3 4 4 4 10 9 9 10 15 13 16 14 15 17 18 20 21 23 23 22 20 23 24 25 25 25 31 36 36 35 34 34 38 38 38 40 40 41 43 45
1 0 0 4 5 4 4 6 8 12 14 16 11 16 15 15 16 19 20 20 19 22 20 17 16 16 17 18 20 22 23 25 29 29 36 38 39 40 42 46 46 46 50
0 -0 3 4 5 4 5 5 9 13 16 17 17 17 15 17 19 19 19 19 20 20 15 13 13 14 15 16 17 18 19 21 22 24 26 29 33 35 42 42 49 51 51
3 5 4 6 5 4 5 6 6 9 14 16 17 17 17 17 17 17 16 14 16 14 10 10 11 12 14 15 16 17 16 18 20 20 21 23 26 28 32 33 35 41 48
16 18 7 8 6 6 7 7 7 8 9 10 14 13 16 16 16 16 16 12 6 8 8 8 9 11 12 14 15 15 17 17 17 19 19 20 22 23 24 26 28 30 33
17 15 13 13 11 10 10 9 9 9 9 9 11 12 12 15 15 15 15 7 7 7 7 7 8 10 11 13 15 15 16 17 17 17 17 18 19 20 20 21 23 27 27
17 19 15 14 14 12 12 11 10 9 9 9 10 12 9 9 8 7 7 7 7 7 8 7 8 9 10 11 13 15 14 15 16 16 17 17 17 18 18 18 19 21 22
16 17 16 13 13 12 12 11 10 9 8 8 8 12 13 8 7 7 7 7 6 6 7 7 7 6 7 9 10 13 14 13 14 15 16 16 16 15 17 17 18 18 22
16 16 14 12 13 12 11 11 10 9 8 7 6 9 11 7 6 6 7 7 7 7 7 7 6 6 6 6 8 9 13 13 13 13 14 15 14 15 15 15 16 16 18
15 15 14 12 12 14 12 11 10 9 7 7 7 6 6 5 6 6 6 6 6 6 6 6 4 3 3 5 7 9 10 14 14 13 12 12 12 12 13 13 13 14 14
11 11 12 13 13 12 11 10 11 11 8 6 5 5 4 3 4 4 5 4 5 5 4 4 3 0 0 3 5 8 12 17 16 13 12 11 12 11 11 11 12 12 12
10 10 11 12 13 11 11 8 7 7 6 6 6 5 4 4 3 3 3 3 2 3 3 1 0 -1 -1 -1 2 9 15 16 18 15 12 10 9 10 8 9 9 10 11
10 10 10 11 10 10 8 7 6 5 5 6 6 5 4 1 1 1 1 0 0 2 1 3 -1 -5 -4 -0 4 15 16 15 15 19 12 8 8 9 10 7 7 10 9
Lifted_Index
17 18 18 18 20 21 21 22 22 22 22 22 21 20 19 18 18 17 17 17 16 16 16 16 17 17 17 17 17 17 17 17 16 15 16 14 11 7 4 3 3 2 2
17 18 18 19 20 21 21 22 23 23 23 22 22 20 19 18 18 18 17 17 17 16 16 17 17 17 17 17 17 17 17 17 16 16 16 15 13 10 7 5 4 3 2
18 18 18 19 20 21 22 23 23 23 23 23 22 21 20 19 19 18 18 18 18 18 18 18 18 18 17 17 18 18 18 18 17 17 16 16 15 13 10 7 5 4 3
17 18 18 19 20 21 22 23 23 24 23 23 23 22 21 21 20 19 19 19 19 19 19 19 19 19 19 19 19 19 19 19 18 17 17 17 17 16 13 8 6 5 4
17 17 18 19 20 21 22 23 23 24 24 24 24 23 23 22 21 20 20 20 19 19 20 21 21 21 20 20 19 19 19 19 19 18 18 17 17 16 14 10 7 6 5
17 17 18 20 20 21 22 22 23 23 24 24 24 23 23 22 22 22 21 21 20 20 19 20 20 20 19 18 18 18 18 18 18 19 19 18 17 17 16 13 9 6 5
17 18 18 19 20 21 22 22 23 23 24 24 24 23 23 23 23 23 22 21 20 19 18 19 19 18 18 18 17 16 16 17 17 18 19 19 18 17 17 15 11 7 5
17 17 18 19 20 21 21 22 22 23 24 24 24 24 23 23 23 23 22 21 19 18 18 18 19 19 19 19 17 16 15 16 16 17 18 19 19 18 17 15 12 8 6
17 17 18 19 19 20 21 21 22 23 24 24 24 24 24 24 24 24 22 19 17 16 17 18 19 20 20 19 17 16 15 15 15 16 17 17 18 18 17 16 13 9 7
17 18 19 19 20 20 21 22 23 24 24 24 24 24 24 24 24 24 22 19 17 15 16 17 19 20 19 18 16 14 13 14 15 15 16 16 17 18 17 16 14 10 8
17 18 19 20 20 20 21 22 23 24 24 24 24 24 25 25 24 23 21 19 17 16 16 17 19 19 16 15 13 12 12 13 14 14 15 15 16 17 17 17 15 12 9
17 18 19 19 20 21 21 22 23 23 24 24 24 24 25 25 24 23 21 18 17 17 17 18 19 17 13 11 10 10 11 12 12 13 14 14 15 15 16 16 16 13 11
17 17 19 19 20 20 21 22 23 23 23 23 23 24 24 24 24 23 21 18 17 17 18 19 18 16 12 10 9 10 11 11 12 12 13 14 14 14 14 14 14 13 12
16 17 18 19 19 20 21 22 23 23 24 24 24 24 24 24 24 24 22 19 17 17 18 18 18 17 14 11 10 10 10 10 11 12 12 12 12 12 12 12 12 11 10
16 17 18 18 18 19 21 22 23 24 24 24 25 25 25 25 25 25 23 21 19 18 17 17 17 17 16 14 12 12 11 10 11 11 11 11 11 11 10 10 9 8 7
15 16 17 18 18 19 20 21 23 24 25 25 25 26 26 26 26 25 24 22 21 19 17 15 16 17 17 17 16 14 12 11 11 11 10 10 9 9 8 7 6 5 4
15 16 17 17 18 19 20 21 22 23 24 25 25 26 26 26 26 25 24 23 23 21 19 17 17 18 18 18 18 16 14 13 12 11 10 9 8 7 7 5 4 3 3
15 16 16 17 18 19 20 21 22 22 23 24 25 26 26 26 26 25 25 24 23 22 21 21 21 21 20 20 19 18 17 16 15 13 11 10 9 8 6 4 3 3 3
15 16 16 17 18 19 20 21 21 22 23 23 24 25 25 25 25 25 25 24 23 23 23 23 23 23 23 22 21 20 19 18 17 16 15 14 12 10 7 5 5 4 4
15 16 17 17 19 20 20 21 21 22 22 23 24 24 25 25 25 25 25 25 25 25 25 25 25 25 25 25 24 23 22 21 20 19 18 17 16 13 11 10 9 8 7
16 16 17 18 19 20 21 21 21 22 22 23 23 24 25 25 25 25 26 26 26 26 26 26 26 26 26 26 26 25 24 23 23 22 21 20 18 16 15 14 13 12 11
16 16 17 18 19 20 21 21 22 22 22 22 23 24 25 25 25 25 26 26 27 27 27 27 27 27 27 27 27 26 26 25 25 25 24 23 21 20 19 17 16 14 14
16 17 17 18 19 20 20 21 22 22 22 23 23 24 24 24 25 25 26 26 26 27 27 27 27 27 27 27 27 27 27 27 27 27 26 25 24 23 22 21 19 17 16
17 17 18 18 19 19 20 20 21 22 22 23 23 23 24 24 24 25 25 25 26 26 26 27 27 27 27 27 27 27 28 28 28 28 27 26 26 25 25 24 23 22 21
18 18 18 19 19 19 20 20 20 21 22 22 23 23 24 24 24 24 24 25 25 25 26 26 26 27 27 27 27 27 28 28 28 28 28 27 27 26 26 25 25 24 24
18 18 19 19 19 19 19 20 20 21 21 22 23 23 23 24 24 24 24 24 24 25 25 25 26 26 27 27 27 27 28 28 28 28 28 27 27 26 26 26 25 25 25